Location: Unspecified
(0.0000°N, 0.0000°E)
Time: 12:51:43
(UTC+00:00)

deb OV3-4 - Pass Details

Date: 14 June 2025
Orbit: 581 x 4212 km, 40.6° (Epoch: 19 July)

Event Time Altitude Azimuth Distance (km) Brightness Sun altitude
Rises 20:18:26 0° 323° (NW) 8,205 ? -31.3°
Reaches altitude 10° 20:24:33 10° 330° (NNW) 7,349 ? -32.7°
Maximum altitude 20:48:57 47° 38° (NE) 4,489 ? -38.0°
Enters shadow 20:54:38 41° 70° (ENE) 4,380 ? -39.2°
